FW3317 Weather Reports


Display with metric or nautical units.
time (UTC)temp
F
wind
direction
speed
MPH
gust
MPH
rain 1hr
in
rain 24hr
in
rain mn
in
humidity
%
barometer
mb
20260504213034 70 269 1.0 10.0 0.00 0.00 0.00 36 1007.1
20260504211516 70 263 3.0 8.0 0.00 0.00 0.00 34 1007.1
20260504210015 70 284 2.0 9.0 0.00 0.00 0.00 35 1007.1
20260504204523 70 279 2.0 10.0 0.00 0.00 0.00 35 1007.1
20260504203024 70 221 4.0 12.0 0.00 0.00 0.00 33 1007.1
20260504201533 72 310 3.0 9.0 0.00 0.00 0.00 33 1007.0
20260504200032 72 342 2.0 11.0 0.00 0.00 0.00 32 1007.1
20260504194534 72 346 3.0 11.0 0.00 0.00 0.00 32 1007.2
20260504193037 70 309 2.0 11.0 0.00 0.00 0.00 35 1007.2
20260504191534 70 252 4.0 16.0 0.00 0.00 0.00 33 1007.2
20260504190032 70 309 2.0 9.0 0.00 0.00 0.00 34 1007.3
20260504184518 70 22 3.0 15.0 0.00 0.00 0.00 32 1007.3
20260504183023 71 223 6.0 16.0 0.00 0.00 0.00 31 1007.5
20260504181520 71 301 2.0 10.0 0.00 0.00 0.00 34 1007.7
20260504180022 70 279 4.0 12.0 0.00 0.00 0.00 32 1007.7
20260504174506 69 253 3.0 18.0 0.00 0.00 0.00 34 1007.9
20260504173052 68 233 4.0 15.0 0.00 0.00 0.00 33 1007.8
20260504171549 69 244 3.0 8.0 0.00 0.00 0.00 35 1008.0
20260504081555 41 79 0.0 2.0 0.00 0.00 0.00 80 1011.0
20260504044554 35 79 0.0 0.0 0.00 0.00 0.00 84 1011.0
20260504043040 35 79 0.0 0.0 0.00 0.00 0.00 84 1011.0
20260504041539 35 79 0.0 0.0 0.00 0.00 0.00 84 1010.9
20260504040041 35 79 0.0 0.0 0.00 0.00 0.00 84 1010.8
20260504034544 35 79 0.0 0.0 0.00 0.00 0.00 83 1010.7
20260504033051 36 79 0.0 0.0 0.00 0.00 0.00 83 1010.6
20260504031545 36 79 0.0 0.0 0.00 0.00 0.00 82 1010.6
20260504030047 36 79 0.0 0.0 0.00 0.00 0.00 81 1010.6
20260504024548 36 79 0.0 0.0 0.00 0.00 0.00 80 1010.6
20260504023047 37 79 0.0 0.0 0.00 0.00 0.00 79 1010.6
20260504021535 38 79 0.0 0.0 0.00 0.00 0.00 77 1010.6
20260504020035 38 79 0.0 0.0 0.00 0.00 0.00 77 1010.6
20260504014539 39 84 0.0 0.0 0.00 0.00 0.00 76 1010.4
20260504013042 40 82 0.0 0.0 0.00 0.00 0.00 73 1010.4
20260504011545 42 360 0.0 0.0 0.00 0.00 0.00 72 1010.3
20260504010057 43 80 0.0 0.0 0.00 0.00 0.00 70 1010.1
20260504004555 43 80 0.0 0.0 0.00 0.00 0.00 66 1009.9
20260504003058 45 360 0.0 0.0 0.00 0.00 0.00 63 1009.7
20260504001615 46 360 0.0 2.0 0.00 0.00 0.00 61 1009.6
20260504001502 46 360 0.0 2.0 0.00 0.00 0.00 60 1009.7
20260504000007 47 360 0.0 0.0 0.00 0.00 0.00 53 1009.4
20260503234514 48 360 0.0 1.0 0.00 0.00 0.00 51 1009.2
20260503233057 49 360 0.0 3.0 0.00 0.00 0.00 51 1009.1
20260503231506 49 360 0.0 4.0 0.00 0.00 0.00 48 1009.0
20260503230013 50 360 1.0 4.0 0.00 0.01 0.00 47 1008.9
20260503224556 50 360 1.0 6.0 0.00 0.01 0.00 47 1008.7
20260503224505 50 360 1.0 6.0 0.00 0.01 0.00 46 1008.7
20260503223049 50 360 0.0 5.0 0.00 0.01 0.00 46 1008.5
20260503221549 51 360 0.0 5.0 0.00 0.01 0.00 46 1008.3
20260503220107 51 360 1.0 5.0 0.00 0.07 0.00 44 1008.2
20260503214600 51 360 1.0 6.0 0.00 0.07 0.00 44 1008.0
20260503214502 51 360 1.0 6.0 0.00 0.07 0.00 47 1008.0